Location: Capannuccia
(43.7000°N, 11.3000°E)
Time: 08:59:52
(UTC+00:00)

STARLINK-1312 - Pass Details

Date: 03 October 2020
Orbit: 549 x 550 km, 53.0° (Epoch: 23 October)

Event Time Altitude Azimuth Distance (km) Brightness Sun altitude
Exits shadow 04:01:47 - 208° (SSW) 1,939 6.1 -14.0°
Reaches altitude 10° 04:02:07 10° 206° (SSW) 1,813 5.9 -14.0°
Maximum altitude 04:05:59 40° 136° (SE) 815 4.8 -13.3°
Drops below altitude 10° 04:09:52 10° 67° (ENE) 1,823 7.6 -12.6°
Sets 04:12:12 0° 60° (ENE) 2,720 8.5 -12.2°
